sat.trackr.live / text

‹ back to catalog

YAOGAN-43 01A

NORAD 60458 · 2024-148A

PAYLOAD ACTIVE UNKNOWN

§ Identity

Operator
Country
PRC
Launch date
2024-08-16
Launch site
XICLF
Launch vehicle
Mass (kg)
RCS (m²)

External: N2YO · Heavens-Above · Gunter

§ Orbital elements

Epoch: 2026-05-25T02:04:36.230016Z

Period
93.81 min
Inclination
35.0051°
Eccentricity
0.0004896
Mean motion
15.35010203 rev/d
Perigee alt
457.5 km
Apogee alt
464.2 km
Semi-major
6,839.0 km
B*
4.4009e-4
RAAN
286.7010°
Arg perigee
5.9739°
Mean anomaly
354.1037°
Rev number
9,889

§ Raw data

YAOGAN-43 01A1 60458U 24148A   26145.08653044  .00015346  00000+0  44009-3 0  99982 60458  35.0051 286.7010 0004896   5.9739 354.1037 15.35010203 98890

JSON: /api/v1/satellites/60458 · /tle

For live sub-satellite position, see the globe view (requires WebGL).

§ Visibility from observer

Set your observer location to see the next 7 days of passes ≥ 10°. The values pass through the URL so the page stays shareable.

No JS? Fill the form by hand. The geolocation button needs JavaScript.